owner,sensor,date,latitude,longitude,vertical_datum,mass_concentration_of_oxygen_in_sea_water,qcFlag 
DISL,ioos:station:DISL:MBLA:1,2008-08-01T00:02:00Z,30.4367,-88.0117,2.995,5.99,1111122 
DISL,ioos:station:DISL:MBLA:1,2008-08-01T00:05:00Z,30.4367,-88.0117,2.531,6.22,1111122 
DISL,ioos:station:DISL:MBLA:1,2008-08-01T00:07:00Z,30.4367,-88.0117,2.002,6.32,1111122 
DISL,ioos:station:DISL:MBLA:1,2008-08-01T00:10:00Z,30.4367,-88.0117,1.407,6.42,1111122 
DISL,ioos:station:DISL:MBLA:1,2008-08-01T00:12:00Z,30.4367,-88.0117,0.934,6.42,1111122 
DISL,ioos:station:DISL:MBLA:1,2008-08-01T00:15:00Z,30.4367,-88.0117,0.658,6.46,1111122 
DISL,ioos:station:DISL:MBLA:1,2008-08-01T01:02:00Z,30.4367,-88.0117,2.945,5.88,1111122 
DISL,ioos:station:DISL:MBLA:1,2008-08-01T01:05:00Z,30.4367,-88.0117,2.493,6.22,1111122 
DISL,ioos:station:DISL:MBLA:1,2008-08-01T01:07:00Z,30.4367,-88.0117,2.03,6.19,1111122 
DISL,ioos:station:DISL:MBLA:1,2008-08-01T01:10:00Z,30.4367,-88.0117,1.431,6.15,1111122 
DISL,ioos:station:DISL:MBLA:1,2008-08-01T01:12:00Z,30.4367,-88.0117,0.982,6.17,1111122 
DISL,ioos:station:DISL:MBLA:1,2008-08-01T01:14:00Z,30.4367,-88.0117,0.34,6.14,1111122 
DISL,ioos:station:DISL:MBLA:1,2008-08-01T02:02:00Z,30.4367,-88.0117,2.958,5.52,1111122 
DISL,ioos:station:DISL:MBLA:1,2008-08-01T02:05:00Z,30.4367,-88.0117,2.506,5.6,1111122 
DISL,ioos:station:DISL:MBLA:1,2008-08-01T02:07:00Z,30.4367,-88.0117,1.964,5.65,1111122 
DISL,ioos:station:DISL:MBLA:1,2008-08-01T02:10:00Z,30.4367,-88.0117,1.518,5.7,1111122 
DISL,ioos:station:DISL:MBLA:1,2008-08-01T02:12:00Z,30.4367,-88.0117,1.013,5.73,1111122 
DISL,ioos:station:DISL:MBLA:1,2008-08-01T02:14:00Z,30.4367,-88.0117,0.436,5.71,1111122 
DISL,ioos:station:DISL:MBLA:1,2008-08-01T03:02:00Z,30.4367,-88.0117,2.974,5.09,1111122 
DISL,ioos:station:DISL:MBLA:1,2008-08-01T03:05:00Z,30.4367,-88.0117,2.517,5.27,1111122 
DISL,ioos:station:DISL:MBLA:1,2008-08-01T03:07:00Z,30.4367,-88.0117,1.995,5.29,1111122 
DISL,ioos:station:DISL:MBLA:1,2008-08-01T03:10:00Z,30.4367,-88.0117,1.467,5.22,1111122 
DISL,ioos:station:DISL:MBLA:1,2008-08-01T03:12:00Z,30.4367,-88.0117,0.942,5.26,1111122 
DISL,ioos:station:DISL:MBLA:1,2008-08-01T03:14:00Z,30.4367,-88.0117,0.461,5.16,1111122 
DISL,ioos:station:DISL:MBLA:1,2008-08-01T04:02:00Z,30.4367,-88.0117,3.002,4.41,1111122 
DISL,ioos:station:DISL:MBLA:1,2008-08-01T04:05:00Z,30.4367,-88.0117,2.485,4.87,1111122 
DISL,ioos:station:DISL:MBLA:1,2008-08-01T04:07:00Z,30.4367,-88.0117,1.962,4.95,1111122 
DISL,ioos:station:DISL:MBLA:1,2008-08-01T04:10:00Z,30.4367,-88.0117,1.501,4.87,1111122 
DISL,ioos:station:DISL:MBLA:1,2008-08-01T04:12:00Z,30.4367,-88.0117,0.978,5.01,1111122 
DISL,ioos:station:DISL:MBLA:1,2008-08-01T04:14:00Z,30.4367,-88.0117,0.425,4.84,1111122 
DISL,ioos:station:DISL:MBLA:1,2008-08-01T05:02:00Z,30.4367,-88.0117,2.98,4.26,1111122 
DISL,ioos:station:DISL:MBLA:1,2008-08-01T05:05:00Z,30.4367,-88.0117,2.463,4.37,1111122 
DISL,ioos:station:DISL:MBLA:1,2008-08-01T05:07:00Z,30.4367,-88.0117,1.939,4.7,1111122 
DISL,ioos:station:DISL:MBLA:1,2008-08-01T05:10:00Z,30.4367,-88.0117,1.482,4.62,1111122 
DISL,ioos:station:DISL:MBLA:1,2008-08-01T05:12:00Z,30.4367,-88.0117,0.971,4.83,1111122 
DISL,ioos:station:DISL:MBLA:1,2008-08-01T05:14:00Z,30.4367,-88.0117,0.493,4.8,1111122 
DISL,ioos:station:DISL:MBLA:1,2008-08-01T06:02:00Z,30.4367,-88.0117,2.986,4.54,1111122 
DISL,ioos:station:DISL:MBLA:1,2008-08-01T06:05:00Z,30.4367,-88.0117,2.473,4.68,1111122 
DISL,ioos:station:DISL:MBLA:1,2008-08-01T06:07:00Z,30.4367,-88.0117,1.958,4.72,1111122 
DISL,ioos:station:DISL:MBLA:1,2008-08-01T06:10:00Z,30.4367,-88.0117,1.508,4.7,1111122 
DISL,ioos:station:DISL:MBLA:1,2008-08-01T06:12:00Z,30.4367,-88.0117,0.992,4.81,1111122 
DISL,ioos:station:DISL:MBLA:1,2008-08-01T06:14:00Z,30.4367,-88.0117,0.447,4.81,1111122 
DISL,ioos:station:DISL:MBLA:1,2008-08-01T07:02:00Z,30.4367,-88.0117,2.954,4.8,1111122 
DISL,ioos:station:DISL:MBLA:1,2008-08-01T07:05:00Z,30.4367,-88.0117,2.506,4.7,1111122 
DISL,ioos:station:DISL:MBLA:1,2008-08-01T07:07:00Z,30.4367,-88.0117,1.994,4.93,1111122 
DISL,ioos:station:DISL:MBLA:1,2008-08-01T07:10:00Z,30.4367,-88.0117,1.476,4.98,1111122 
DISL,ioos:station:DISL:MBLA:1,2008-08-01T07:12:00Z,30.4367,-88.0117,0.961,4.99,1111122 
DISL,ioos:station:DISL:MBLA:1,2008-08-01T07:14:00Z,30.4367,-88.0117,0.478,4.94,1111122 
DISL,ioos:station:DISL:MBLA:1,2008-08-01T08:02:00Z,30.4367,-88.0117,2.991,4.53,1111122 
DISL,ioos:station:DISL:MBLA:1,2008-08-01T08:05:00Z,30.4367,-88.0117,2.481,4.58,1111122 
DISL,ioos:station:DISL:MBLA:1,2008-08-01T08:07:00Z,30.4367,-88.0117,1.967,5.02,1111122 
DISL,ioos:station:DISL:MBLA:1,2008-08-01T08:10:00Z,30.4367,-88.0117,1.517,5.18,1111122 
DISL,ioos:station:DISL:MBLA:1,2008-08-01T08:12:00Z,30.4367,-88.0117,1.008,5.17,1111122 
DISL,ioos:station:DISL:MBLA:1,2008-08-01T08:14:00Z,30.4367,-88.0117,0.464,5.17,1111122 
DISL,ioos:station:DISL:MBLA:1,2008-08-01T09:02:00Z,30.4367,-88.0117,2.983,4.33,1111122 
DISL,ioos:station:DISL:MBLA:1,2008-08-01T09:05:00Z,30.4367,-88.0117,2.476,5.15,1111122 
DISL,ioos:station:DISL:MBLA:1,2008-08-01T09:07:00Z,30.4367,-88.0117,1.964,5.32,1111122 
DISL,ioos:station:DISL:MBLA:1,2008-08-01T09:10:00Z,30.4367,-88.0117,1.517,5.32,1111122 
DISL,ioos:station:DISL:MBLA:1,2008-08-01T09:12:00Z,30.4367,-88.0117,1.006,5.37,1111122 
DISL,ioos:station:DISL:MBLA:1,2008-08-01T09:14:00Z,30.4367,-88.0117,0.447,5.31,1111122 
DISL,ioos:station:DISL:MBLA:1,2008-08-01T10:02:00Z,30.4367,-88.0117,2.972,4.28,1111122 
DISL,ioos:station:DISL:MBLA:1,2008-08-01T10:05:00Z,30.4367,-88.0117,2.469,4.97,1111122 
DISL,ioos:station:DISL:MBLA:1,2008-08-01T10:07:00Z,30.4367,-88.0117,2.022,5.42,1111122 
DISL,ioos:station:DISL:MBLA:1,2008-08-01T10:10:00Z,30.4367,-88.0117,1.517,5.45,1111122 
DISL,ioos:station:DISL:MBLA:1,2008-08-01T10:12:00Z,30.4367,-88.0117,1.003,5.49,1111122 
DISL,ioos:station:DISL:MBLA:1,2008-08-01T10:14:00Z,30.4367,-88.0117,0.448,5.35,1111122 
DISL,ioos:station:DISL:MBLA:1,2008-08-01T11:02:00Z,30.4367,-88.0117,2.978,4.61,1111122 
DISL,ioos:station:DISL:MBLA:1,2008-08-01T11:05:00Z,30.4367,-88.0117,2.467,4.45,1111122 
DISL,ioos:station:DISL:MBLA:1,2008-08-01T11:07:00Z,30.4367,-88.0117,2.02,4.57,1111122 
DISL,ioos:station:DISL:MBLA:1,2008-08-01T11:10:00Z,30.4367,-88.0117,1.513,5.51,1111122 
DISL,ioos:station:DISL:MBLA:1,2008-08-01T11:12:00Z,30.4367,-88.0117,0.999,5.53,1111122 
DISL,ioos:station:DISL:MBLA:1,2008-08-01T11:14:00Z,30.4367,-88.0117,0.446,5.44,1111122 
DISL,ioos:station:DISL:MBLA:1,2008-08-01T12:02:00Z,30.4367,-88.0117,2.969,5.16,1111122 
DISL,ioos:station:DISL:MBLA:1,2008-08-01T12:05:00Z,30.4367,-88.0117,2.525,5.15,1111122 
DISL,ioos:station:DISL:MBLA:1,2008-08-01T12:07:00Z,30.4367,-88.0117,2.014,4.98,1111122 
DISL,ioos:station:DISL:MBLA:1,2008-08-01T12:10:00Z,30.4367,-88.0117,1.509,4.77,1111122 
DISL,ioos:station:DISL:MBLA:1,2008-08-01T12:12:00Z,30.4367,-88.0117,0.981,5.41,1111122 
DISL,ioos:station:DISL:MBLA:1,2008-08-01T12:14:00Z,30.4367,-88.0117,0.434,5.22,1111122 
DISL,ioos:station:DISL:MBLA:1,2008-08-01T13:02:00Z,30.4367,-88.0117,2.969,4.88,1111122 
DISL,ioos:station:DISL:MBLA:1,2008-08-01T13:05:00Z,30.4367,-88.0117,2.512,4.8,1111122 
DISL,ioos:station:DISL:MBLA:1,2008-08-01T13:07:00Z,30.4367,-88.0117,2.0,4.83,1111122 
DISL,ioos:station:DISL:MBLA:1,2008-08-01T13:10:00Z,30.4367,-88.0117,1.48,4.8,1111122 
DISL,ioos:station:DISL:MBLA:1,2008-08-01T13:12:00Z,30.4367,-88.0117,0.94,4.74,1111122 
DISL,ioos:station:DISL:MBLA:1,2008-08-01T13:14:00Z,30.4367,-88.0117,0.446,5.0,1111122 
DISL,ioos:station:DISL:MBLA:1,2008-08-01T14:02:00Z,30.4367,-88.0117,2.951,5.12,1111122 
DISL,ioos:station:DISL:MBLA:1,2008-08-01T14:05:00Z,30.4367,-88.0117,2.49,5.22,1111122 
DISL,ioos:station:DISL:MBLA:1,2008-08-01T14:07:00Z,30.4367,-88.0117,1.955,5.13,1111122 
DISL,ioos:station:DISL:MBLA:1,2008-08-01T14:10:00Z,30.4367,-88.0117,1.494,5.15,1111122 
DISL,ioos:station:DISL:MBLA:1,2008-08-01T14:12:00Z,30.4367,-88.0117,0.922,5.15,1111122 
DISL,ioos:station:DISL:MBLA:1,2008-08-01T14:14:00Z,30.4367,-88.0117,0.474,5.4,1111122 
DISL,ioos:station:DISL:MBLA:1,2008-08-01T15:02:00Z,30.4367,-88.0117,3.007,4.92,1111122 
DISL,ioos:station:DISL:MBLA:1,2008-08-01T15:05:00Z,30.4367,-88.0117,2.466,5.16,1111122 
DISL,ioos:station:DISL:MBLA:1,2008-08-01T15:07:00Z,30.4367,-88.0117,1.991,5.34,1111122 
DISL,ioos:station:DISL:MBLA:1,2008-08-01T15:10:00Z,30.4367,-88.0117,1.453,5.62,1111122 
DISL,ioos:station:DISL:MBLA:1,2008-08-01T15:12:00Z,30.4367,-88.0117,0.959,5.71,1111122 
DISL,ioos:station:DISL:MBLA:1,2008-08-01T15:14:00Z,30.4367,-88.0117,0.512,5.74,1111122 
DISL,ioos:station:DISL:MBLA:1,2008-08-01T16:02:00Z,30.4367,-88.0117,3.05,5.3,1111122 
DISL,ioos:station:DISL:MBLA:1,2008-08-01T16:05:00Z,30.4367,-88.0117,2.439,5.4,1111122 
DISL,ioos:station:DISL:MBLA:1,2008-08-01T16:07:00Z,30.4367,-88.0117,1.959,5.82,1111122 
DISL,ioos:station:DISL:MBLA:1,2008-08-01T16:10:00Z,30.4367,-88.0117,1.475,5.91,1111122 
DISL,ioos:station:DISL:MBLA:1,2008-08-01T16:12:00Z,30.4367,-88.0117,0.959,5.9,1111122 
DISL,ioos:station:DISL:MBLA:1,2008-08-01T16:15:00Z,30.4367,-88.0117,0.401,5.97,1111122 
DISL,ioos:station:DISL:MBLA:1,2008-08-01T17:02:00Z,30.4367,-88.0117,2.961,5.8,1111122 
DISL,ioos:station:DISL:MBLA:1,2008-08-01T17:05:00Z,30.4367,-88.0117,2.435,5.94,1111122 
DISL,ioos:station:DISL:MBLA:1,2008-08-01T17:07:00Z,30.4367,-88.0117,1.94,6.0,1111122 
DISL,ioos:station:DISL:MBLA:1,2008-08-01T17:10:00Z,30.4367,-88.0117,1.426,6.03,1111122 
DISL,ioos:station:DISL:MBLA:1,2008-08-01T17:12:00Z,30.4367,-88.0117,1.071,6.0,1111122 
DISL,ioos:station:DISL:MBLA:1,2008-08-01T17:14:00Z,30.4367,-88.0117,0.412,6.02,1111122 
DISL,ioos:station:DISL:MBLA:1,2008-08-01T18:02:00Z,30.4367,-88.0117,2.965,5.87,1111122 
DISL,ioos:station:DISL:MBLA:1,2008-08-01T18:05:00Z,30.4367,-88.0117,2.511,6.0,1111122 
DISL,ioos:station:DISL:MBLA:1,2008-08-01T18:07:00Z,30.4367,-88.0117,1.966,5.97,1111122 
DISL,ioos:station:DISL:MBLA:1,2008-08-01T18:10:00Z,30.4367,-88.0117,1.445,6.05,1111122 
DISL,ioos:station:DISL:MBLA:1,2008-08-01T18:13:00Z,30.4367,-88.0117,1.098,6.13,1111122 
DISL,ioos:station:DISL:MBLA:1,2008-08-01T18:15:00Z,30.4367,-88.0117,0.487,6.08,1111122 
DISL,ioos:station:DISL:MBLA:1,2008-08-01T19:02:00Z,30.4367,-88.0117,2.971,6.18,1111122 
DISL,ioos:station:DISL:MBLA:1,2008-08-01T19:05:00Z,30.4367,-88.0117,2.494,6.18,1111122 
DISL,ioos:station:DISL:MBLA:1,2008-08-01T19:07:00Z,30.4367,-88.0117,2.028,6.08,1111122 
DISL,ioos:station:DISL:MBLA:1,2008-08-01T19:10:00Z,30.4367,-88.0117,1.509,6.06,1111122 
DISL,ioos:station:DISL:MBLA:1,2008-08-01T19:12:00Z,30.4367,-88.0117,1.101,6.08,1111122 
DISL,ioos:station:DISL:MBLA:1,2008-08-01T19:15:00Z,30.4367,-88.0117,0.348,6.06,1111122 
DISL,ioos:station:DISL:MBLA:1,2008-08-01T20:02:00Z,30.4367,-88.0117,3.043,5.98,1111122 
DISL,ioos:station:DISL:MBLA:1,2008-08-01T20:05:00Z,30.4367,-88.0117,2.45,5.99,1111122 
DISL,ioos:station:DISL:MBLA:1,2008-08-01T20:07:00Z,30.4367,-88.0117,1.981,6.0,1111122 
DISL,ioos:station:DISL:MBLA:1,2008-08-01T20:10:00Z,30.4367,-88.0117,1.5,6.1,1111122 
DISL,ioos:station:DISL:MBLA:1,2008-08-01T20:12:00Z,30.4367,-88.0117,0.905,6.14,1111122 
DISL,ioos:station:DISL:MBLA:1,2008-08-01T20:15:00Z,30.4367,-88.0117,0.408,6.13,1111122 
DISL,ioos:station:DISL:MBLA:1,2008-08-01T21:02:00Z,30.4367,-88.0117,2.946,6.13,1111122 
DISL,ioos:station:DISL:MBLA:1,2008-08-01T21:05:00Z,30.4367,-88.0117,2.432,6.21,1111122 
DISL,ioos:station:DISL:MBLA:1,2008-08-01T21:07:00Z,30.4367,-88.0117,1.952,6.16,1111122 
DISL,ioos:station:DISL:MBLA:1,2008-08-01T21:10:00Z,30.4367,-88.0117,1.478,6.41,1111122 
DISL,ioos:station:DISL:MBLA:1,2008-08-01T21:12:00Z,30.4367,-88.0117,0.869,6.56,1111122 
DISL,ioos:station:DISL:MBLA:1,2008-08-01T21:14:00Z,30.4367,-88.0117,0.452,6.36,1111122 
DISL,ioos:station:DISL:MBLA:1,2008-08-01T22:02:00Z,30.4367,-88.0117,2.945,6.13,1111122 
DISL,ioos:station:DISL:MBLA:1,2008-08-01T22:05:00Z,30.4367,-88.0117,2.48,6.15,1111122 
DISL,ioos:station:DISL:MBLA:1,2008-08-01T22:07:00Z,30.4367,-88.0117,1.94,6.21,1111122 
DISL,ioos:station:DISL:MBLA:1,2008-08-01T22:10:00Z,30.4367,-88.0117,1.479,6.26,1111122 
DISL,ioos:station:DISL:MBLA:1,2008-08-01T22:12:00Z,30.4367,-88.0117,0.928,6.29,1111122 
DISL,ioos:station:DISL:MBLA:1,2008-08-01T22:14:00Z,30.4367,-88.0117,0.475,6.45,1111122 
DISL,ioos:station:DISL:MBLA:1,2008-08-01T23:02:00Z,30.4367,-88.0117,2.903,6.37,1111122 
DISL,ioos:station:DISL:MBLA:1,2008-08-01T23:05:00Z,30.4367,-88.0117,2.441,6.47,1111122 
DISL,ioos:station:DISL:MBLA:1,2008-08-01T23:07:00Z,30.4367,-88.0117,1.986,6.44,1111122 
DISL,ioos:station:DISL:MBLA:1,2008-08-01T23:10:00Z,30.4367,-88.0117,1.46,6.36,1111122 
DISL,ioos:station:DISL:MBLA:1,2008-08-01T23:12:00Z,30.4367,-88.0117,0.985,6.32,1111122 
DISL,ioos:station:DISL:MBLA:1,2008-08-01T23:15:00Z,30.4367,-88.0117,0.582,6.3,1111122 
DISL,ioos:station:DISL:MBLA:1,2008-08-02T00:02:00Z,30.4367,-88.0117,2.983,5.49,1111122 
DISL,ioos:station:DISL:MBLA:1,2008-08-02T00:05:00Z,30.4367,-88.0117,2.468,5.55,1111122 
DISL,ioos:station:DISL:MBLA:1,2008-08-02T00:07:00Z,30.4367,-88.0117,2.007,5.51,1111122 
DISL,ioos:station:DISL:MBLA:1,2008-08-02T00:10:00Z,30.4367,-88.0117,1.489,5.51,1111122 
DISL,ioos:station:DISL:MBLA:1,2008-08-02T00:12:00Z,30.4367,-88.0117,0.967,5.51,1111122 
DISL,ioos:station:DISL:MBLA:1,2008-08-02T00:14:00Z,30.4367,-88.0117,0.465,5.46,1111122 
DISL,ioos:station:DISL:MBLA:1,2008-08-02T01:02:00Z,30.4367,-88.0117,2.968,5.15,1111122 
DISL,ioos:station:DISL:MBLA:1,2008-08-02T01:05:00Z,30.4367,-88.0117,2.449,5.28,1111122 
DISL,ioos:station:DISL:MBLA:1,2008-08-02T01:07:00Z,30.4367,-88.0117,1.993,5.39,1111122 
DISL,ioos:station:DISL:MBLA:1,2008-08-02T01:10:00Z,30.4367,-88.0117,1.472,5.49,1111122 
DISL,ioos:station:DISL:MBLA:1,2008-08-02T01:12:00Z,30.4367,-88.0117,0.952,5.51,1111122 
DISL,ioos:station:DISL:MBLA:1,2008-08-02T01:14:00Z,30.4367,-88.0117,0.459,5.45,1111122 
DISL,ioos:station:DISL:MBLA:1,2008-08-02T02:02:00Z,30.4367,-88.0117,2.941,5.18,1111122 
DISL,ioos:station:DISL:MBLA:1,2008-08-02T02:05:00Z,30.4367,-88.0117,2.493,5.23,1111122 
DISL,ioos:station:DISL:MBLA:1,2008-08-02T02:07:00Z,30.4367,-88.0117,1.976,5.2,1111122 
DISL,ioos:station:DISL:MBLA:1,2008-08-02T02:10:00Z,30.4367,-88.0117,1.461,5.24,1111122 
DISL,ioos:station:DISL:MBLA:1,2008-08-02T02:12:00Z,30.4367,-88.0117,0.989,5.18,1111122 
DISL,ioos:station:DISL:MBLA:1,2008-08-02T02:14:00Z,30.4367,-88.0117,0.458,5.11,1111122 
DISL,ioos:station:DISL:MBLA:1,2008-08-02T03:02:00Z,30.4367,-88.0117,2.957,4.93,1111122 
DISL,ioos:station:DISL:MBLA:1,2008-08-02T03:05:00Z,30.4367,-88.0117,2.507,4.93,1111122 
DISL,ioos:station:DISL:MBLA:1,2008-08-02T03:07:00Z,30.4367,-88.0117,1.993,5.02,1111122 
DISL,ioos:station:DISL:MBLA:1,2008-08-02T03:09:00Z,30.4367,-88.0117,1.476,4.9,1111122 
DISL,ioos:station:DISL:MBLA:1,2008-08-02T03:12:00Z,30.4367,-88.0117,0.961,4.97,1111122 
DISL,ioos:station:DISL:MBLA:1,2008-08-02T03:14:00Z,30.4367,-88.0117,0.484,4.93,1111122 
DISL,ioos:station:DISL:MBLA:1,2008-08-02T04:02:00Z,30.4367,-88.0117,2.974,4.89,1111122 
DISL,ioos:station:DISL:MBLA:1,2008-08-02T04:05:00Z,30.4367,-88.0117,2.462,4.81,1111122 
DISL,ioos:station:DISL:MBLA:1,2008-08-02T04:07:00Z,30.4367,-88.0117,2.008,4.91,1111122 
DISL,ioos:station:DISL:MBLA:1,2008-08-02T04:10:00Z,30.4367,-88.0117,1.493,4.94,1111122 
DISL,ioos:station:DISL:MBLA:1,2008-08-02T04:12:00Z,30.4367,-88.0117,0.979,4.94,1111122 
DISL,ioos:station:DISL:MBLA:1,2008-08-02T04:14:00Z,30.4367,-88.0117,0.434,4.95,1111122 
DISL,ioos:station:DISL:MBLA:1,2008-08-02T05:02:00Z,30.4367,-88.0117,2.939,4.86,1111122 
DISL,ioos:station:DISL:MBLA:1,2008-08-02T05:05:00Z,30.4367,-88.0117,2.491,4.84,1111122 
DISL,ioos:station:DISL:MBLA:1,2008-08-02T05:07:00Z,30.4367,-88.0117,1.982,4.85,1111122 
DISL,ioos:station:DISL:MBLA:1,2008-08-02T05:10:00Z,30.4367,-88.0117,1.468,4.93,1111122 
DISL,ioos:station:DISL:MBLA:1,2008-08-02T05:12:00Z,30.4367,-88.0117,1.024,4.95,1111122 
DISL,ioos:station:DISL:MBLA:1,2008-08-02T05:14:00Z,30.4367,-88.0117,0.493,4.93,1111122 
DISL,ioos:station:DISL:MBLA:1,2008-08-02T06:02:00Z,30.4367,-88.0117,2.946,4.6,1111122 
DISL,ioos:station:DISL:MBLA:1,2008-08-02T06:05:00Z,30.4367,-88.0117,2.503,4.77,1111122 
DISL,ioos:station:DISL:MBLA:1,2008-08-02T06:07:00Z,30.4367,-88.0117,1.996,4.75,1111122 
DISL,ioos:station:DISL:MBLA:1,2008-08-02T06:10:00Z,30.4367,-88.0117,1.485,4.68,1111122 
DISL,ioos:station:DISL:MBLA:1,2008-08-02T06:12:00Z,30.4367,-88.0117,0.978,4.74,1111122 
DISL,ioos:station:DISL:MBLA:1,2008-08-02T06:14:00Z,30.4367,-88.0117,0.446,4.85,1111122 
DISL,ioos:station:DISL:MBLA:1,2008-08-02T07:02:00Z,30.4367,-88.0117,2.985,4.27,1111122 
DISL,ioos:station:DISL:MBLA:1,2008-08-02T07:05:00Z,30.4367,-88.0117,2.483,4.57,1111122 
DISL,ioos:station:DISL:MBLA:1,2008-08-02T07:07:00Z,30.4367,-88.0117,1.974,4.93,1111122 
DISL,ioos:station:DISL:MBLA:1,2008-08-02T07:09:00Z,30.4367,-88.0117,1.463,4.89,1111122 
DISL,ioos:station:DISL:MBLA:1,2008-08-02T07:12:00Z,30.4367,-88.0117,0.955,5.06,1111122 
DISL,ioos:station:DISL:MBLA:1,2008-08-02T07:14:00Z,30.4367,-88.0117,0.486,5.06,1111122 
DISL,ioos:station:DISL:MBLA:1,2008-08-02T08:02:00Z,30.4367,-88.0117,2.966,4.62,1111122 
DISL,ioos:station:DISL:MBLA:1,2008-08-02T08:05:00Z,30.4367,-88.0117,2.532,4.76,1111122 
DISL,ioos:station:DISL:MBLA:1,2008-08-02T08:07:00Z,30.4367,-88.0117,2.027,4.79,1111122 
DISL,ioos:station:DISL:MBLA:1,2008-08-02T08:09:00Z,30.4367,-88.0117,1.524,4.85,1111122 
DISL,ioos:station:DISL:MBLA:1,2008-08-02T08:12:00Z,30.4367,-88.0117,1.017,5.05,1111122 
DISL,ioos:station:DISL:MBLA:1,2008-08-02T08:14:00Z,30.4367,-88.0117,0.556,5.09,1111122 
DISL,ioos:station:DISL:MBLA:1,2008-08-02T09:02:00Z,30.4367,-88.0117,2.983,4.59,1111122 
DISL,ioos:station:DISL:MBLA:1,2008-08-02T09:05:00Z,30.4367,-88.0117,2.483,4.66,1111122 
DISL,ioos:station:DISL:MBLA:1,2008-08-02T09:07:00Z,30.4367,-88.0117,1.977,4.99,1111122 
DISL,ioos:station:DISL:MBLA:1,2008-08-02T09:09:00Z,30.4367,-88.0117,1.473,5.1,1111122 
DISL,ioos:station:DISL:MBLA:1,2008-08-02T09:12:00Z,30.4367,-88.0117,0.97,5.09,1111122 
DISL,ioos:station:DISL:MBLA:1,2008-08-02T09:14:00Z,30.4367,-88.0117,0.499,5.13,1111122 
DISL,ioos:station:DISL:MBLA:1,2008-08-02T10:02:00Z,30.4367,-88.0117,2.978,4.7,1111122 
DISL,ioos:station:DISL:MBLA:1,2008-08-02T10:05:00Z,30.4367,-88.0117,2.475,4.62,1111122 
DISL,ioos:station:DISL:MBLA:1,2008-08-02T10:07:00Z,30.4367,-88.0117,1.973,5.03,1111122 
DISL,ioos:station:DISL:MBLA:1,2008-08-02T10:09:00Z,30.4367,-88.0117,1.47,5.25,1111122 
DISL,ioos:station:DISL:MBLA:1,2008-08-02T10:12:00Z,30.4367,-88.0117,0.963,5.19,1111122 
DISL,ioos:station:DISL:MBLA:1,2008-08-02T10:14:00Z,30.4367,-88.0117,0.421,5.08,1111122 
DISL,ioos:station:DISL:MBLA:1,2008-08-02T11:02:00Z,30.4367,-88.0117,2.964,4.77,1111122 
DISL,ioos:station:DISL:MBLA:1,2008-08-02T11:05:00Z,30.4367,-88.0117,2.529,4.87,1111122 
DISL,ioos:station:DISL:MBLA:1,2008-08-02T11:07:00Z,30.4367,-88.0117,2.024,5.1,1111122 
DISL,ioos:station:DISL:MBLA:1,2008-08-02T11:10:00Z,30.4367,-88.0117,1.518,5.33,1111122 
DISL,ioos:station:DISL:MBLA:1,2008-08-02T11:12:00Z,30.4367,-88.0117,1.012,5.3,1111122 
DISL,ioos:station:DISL:MBLA:1,2008-08-02T11:14:00Z,30.4367,-88.0117,0.464,5.21,1111122 
DISL,ioos:station:DISL:MBLA:1,2008-08-02T12:02:00Z,30.4367,-88.0117,2.954,4.83,1111122 
DISL,ioos:station:DISL:MBLA:1,2008-08-02T12:05:00Z,30.4367,-88.0117,2.516,5.16,1111122 
DISL,ioos:station:DISL:MBLA:1,2008-08-02T12:07:00Z,30.4367,-88.0117,2.006,5.31,1111122 
DISL,ioos:station:DISL:MBLA:1,2008-08-02T12:09:00Z,30.4367,-88.0117,1.501,5.32,1111122 
DISL,ioos:station:DISL:MBLA:1,2008-08-02T12:12:00Z,30.4367,-88.0117,0.992,5.41,1111122 
DISL,ioos:station:DISL:MBLA:1,2008-08-02T12:14:00Z,30.4367,-88.0117,0.438,5.35,1111122 
DISL,ioos:station:DISL:MBLA:1,2008-08-02T13:02:00Z,30.4367,-88.0117,2.956,4.99,1111122 
DISL,ioos:station:DISL:MBLA:1,2008-08-02T13:05:00Z,30.4367,-88.0117,2.508,5.54,1111122 
DISL,ioos:station:DISL:MBLA:1,2008-08-02T13:07:00Z,30.4367,-88.0117,1.984,4.87,1111122 
DISL,ioos:station:DISL:MBLA:1,2008-08-02T13:10:00Z,30.4367,-88.0117,1.463,5.54,1111122 
DISL,ioos:station:DISL:MBLA:1,2008-08-02T13:12:00Z,30.4367,-88.0117,0.941,5.62,1111122 
DISL,ioos:station:DISL:MBLA:1,2008-08-02T13:14:00Z,30.4367,-88.0117,0.445,5.55,1111122 
DISL,ioos:station:DISL:MBLA:1,2008-08-02T14:02:00Z,30.4367,-88.0117,3.022,5.07,1111122 
DISL,ioos:station:DISL:MBLA:1,2008-08-02T14:05:00Z,30.4367,-88.0117,2.484,5.6,1111122 
DISL,ioos:station:DISL:MBLA:1,2008-08-02T14:07:00Z,30.4367,-88.0117,2.018,5.74,1111122 
DISL,ioos:station:DISL:MBLA:1,2008-08-02T14:10:00Z,30.4367,-88.0117,1.44,5.86,1111122 
DISL,ioos:station:DISL:MBLA:1,2008-08-02T14:12:00Z,30.4367,-88.0117,0.892,5.89,1111122 
DISL,ioos:station:DISL:MBLA:1,2008-08-02T14:15:00Z,30.4367,-88.0117,0.54,5.66,1111122 
DISL,ioos:station:DISL:MBLA:1,2008-08-02T15:02:00Z,30.4367,-88.0117,2.979,4.67,1111122 
DISL,ioos:station:DISL:MBLA:1,2008-08-02T15:05:00Z,30.4367,-88.0117,2.421,5.16,1111122 
DISL,ioos:station:DISL:MBLA:1,2008-08-02T15:07:00Z,30.4367,-88.0117,1.932,5.61,1111122 
DISL,ioos:station:DISL:MBLA:1,2008-08-02T15:10:00Z,30.4367,-88.0117,1.442,6.04,1111122 
DISL,ioos:station:DISL:MBLA:1,2008-08-02T15:12:00Z,30.4367,-88.0117,0.927,6.18,1111122 
DISL,ioos:station:DISL:MBLA:1,2008-08-02T15:14:00Z,30.4367,-88.0117,0.399,6.18,1111122 
DISL,ioos:station:DISL:MBLA:1,2008-08-02T16:02:00Z,30.4367,-88.0117,2.994,4.99,1111122 
DISL,ioos:station:DISL:MBLA:1,2008-08-02T16:05:00Z,30.4367,-88.0117,2.614,5.08,1111122 
DISL,ioos:station:DISL:MBLA:1,2008-08-02T16:07:00Z,30.4367,-88.0117,1.957,5.9,1111122 
DISL,ioos:station:DISL:MBLA:1,2008-08-02T16:10:00Z,30.4367,-88.0117,1.543,6.31,1111122 
DISL,ioos:station:DISL:MBLA:1,2008-08-02T16:12:00Z,30.4367,-88.0117,1.045,6.55,1111122 
DISL,ioos:station:DISL:MBLA:1,2008-08-02T16:15:00Z,30.4367,-88.0117,0.426,6.59,1111122 
DISL,ioos:station:DISL:MBLA:1,2008-08-02T17:02:00Z,30.4367,-88.0117,3.004,5.26,1111122 
DISL,ioos:station:DISL:MBLA:1,2008-08-02T17:05:00Z,30.4367,-88.0117,2.436,5.5,1111122 
DISL,ioos:station:DISL:MBLA:1,2008-08-02T17:07:00Z,30.4367,-88.0117,1.937,6.28,1111122 
DISL,ioos:station:DISL:MBLA:1,2008-08-02T17:09:00Z,30.4367,-88.0117,1.432,6.85,1111122 
DISL,ioos:station:DISL:MBLA:1,2008-08-02T17:12:00Z,30.4367,-88.0117,0.902,6.98,1111122 
DISL,ioos:station:DISL:MBLA:1,2008-08-02T17:14:00Z,30.4367,-88.0117,0.534,7.11,1111122 
DISL,ioos:station:DISL:MBLA:1,2008-08-02T18:02:00Z,30.4367,-88.0117,3.041,5.47,1111122 
DISL,ioos:station:DISL:MBLA:1,2008-08-02T18:05:00Z,30.4367,-88.0117,2.463,5.61,1111122 
DISL,ioos:station:DISL:MBLA:1,2008-08-02T18:07:00Z,30.4367,-88.0117,1.961,6.21,1111122 
DISL,ioos:station:DISL:MBLA:1,2008-08-02T18:10:00Z,30.4367,-88.0117,1.46,6.8,1111122 
DISL,ioos:station:DISL:MBLA:1,2008-08-02T18:12:00Z,30.4367,-88.0117,0.926,6.99,1111122 
DISL,ioos:station:DISL:MBLA:1,2008-08-02T18:14:00Z,30.4367,-88.0117,0.556,7.13,1111122 
DISL,ioos:station:DISL:MBLA:1,2008-08-02T19:02:00Z,30.4367,-88.0117,2.996,5.61,1111122 
DISL,ioos:station:DISL:MBLA:1,2008-08-02T19:05:00Z,30.4367,-88.0117,2.428,5.88,1111122 
DISL,ioos:station:DISL:MBLA:1,2008-08-02T19:07:00Z,30.4367,-88.0117,1.926,6.82,1111122 
DISL,ioos:station:DISL:MBLA:1,2008-08-02T19:09:00Z,30.4367,-88.0117,1.323,7.22,1111122 
DISL,ioos:station:DISL:MBLA:1,2008-08-02T19:12:00Z,30.4367,-88.0117,1.059,7.23,1111122 
DISL,ioos:station:DISL:MBLA:1,2008-08-02T19:14:00Z,30.4367,-88.0117,0.436,7.7,1111122 
DISL,ioos:station:DISL:MBLA:1,2008-08-02T20:02:00Z,30.4367,-88.0117,3.047,6.11,1111122 
DISL,ioos:station:DISL:MBLA:1,2008-08-02T20:05:00Z,30.4367,-88.0117,2.406,6.7,1111122 
DISL,ioos:station:DISL:MBLA:1,2008-08-02T20:07:00Z,30.4367,-88.0117,2.06,6.92,1111122 
DISL,ioos:station:DISL:MBLA:1,2008-08-02T20:10:00Z,30.4367,-88.0117,1.414,7.45,1111122 
DISL,ioos:station:DISL:MBLA:1,2008-08-02T20:12:00Z,30.4367,-88.0117,1.055,7.33,1111122 
DISL,ioos:station:DISL:MBLA:1,2008-08-02T20:15:00Z,30.4367,-88.0117,0.542,7.01,1111122 
DISL,ioos:station:DISL:MBLA:1,2008-08-02T21:02:00Z,30.4367,-88.0117,3.073,6.3,1111122 
DISL,ioos:station:DISL:MBLA:1,2008-08-02T21:05:00Z,30.4367,-88.0117,2.432,7.01,1111122 